Temperature
21 22 22 23 24 25 25 26 26 27 27 27 28 28 29 29 29 30 29 29 28 28 27 26 24 23 22 21 20 20 19 19 19 18 18 17 16 16 16 16 16 16 15 15
21 22 24 24 24 24 24 24 25 26 26 26 27 28 29 29 29 28 28 27 27 27 26 26 25 23 22 21 20 19 19 19 19 18 18 17 16 16 16 16 15 15 15 14
22 24 24 23 22 22 23 24 25 25 26 26 26 27 28 29 28 26 26 25 25 25 25 25 24 23 22 21 20 19 18 18 18 17 17 17 16 16 15 15 15 15 14 14
23 24 23 22 23 23 23 24 25 25 25 26 26 27 28 28 28 27 25 24 23 23 23 23 23 23 22 21 20 19 18 18 17 17 17 16 16 15 15 15 15 14 13 13
22 23 23 23 23 24 24 25 25 24 25 25 26 25 28 27 27 26 24 21 20 20 20 20 20 21 20 20 19 18 18 17 17 17 16 16 15 15 15 14 14 13 13 12
24 24 24 24 24 24 25 24 24 24 25 24 25 26 27 27 25 24 22 19 17 17 17 17 17 18 18 18 18 17 17 16 16 16 15 15 15 14 14 14 13 12 12 12
22 23 24 24 24 24 24 23 23 23 24 24 26 25 26 23 22 20 19 17 15 15 16 16 16 16 16 16 16 16 16 15 15 15 15 14 14 13 13 12 12 12 11 11
22 22 24 24 24 24 23 24 23 23 24 25 25 25 25 22 19 17 16 15 14 14 14 14 14 14 15 15 15 15 15 14 14 14 14 13 13 12 12 11 11 11 10 9
23 23 24 25 25 25 24 24 25 24 24 25 26 25 23 21 19 17 16 15 14 13 13 13 13 14 14 14 14 14 14 14 13 13 13 12 12 12 11 11 10 10 9 8
23 22 24 24 25 25 25 25 24 23 23 23 25 25 25 21 19 17 16 14 13 13 13 13 13 13 13 13 13 13 13 13 12 12 12 11 11 11 10 10 9 8 8 8
22 22 23 23 23 24 24 24 24 24 24 24 24 25 24 22 20 17 15 13 12 12 12 12 12 12 12 12 12 12 12 12 11 11 11 10 10 9 9 8 8 7 7 7
20 21 22 23 24 24 24 24 24 23 23 24 24 23 21 21 19 16 14 12 11 11 11 11 11 11 11 11 11 11 11 11 10 10 10 10 9 8 8 7 7 7 6 6
19 20 21 21 22 23 23 23 23 23 23 23 23 22 19 18 16 14 13 11 11 11 11 11 11 10 10 10 10 10 10 9 9 9 9 8 8 7 7 7 6 6 5 5
18 20 21 21 22 22 22 22 23 23 23 23 23 21 19 17 15 13 12 11 10 10 10 10 10 9 9 9 9 9 9 9 8 8 8 7 7 7 6 6 5 5 5 5
19 20 20 20 21 21 21 21 22 22 22 23 22 21 19 17 16 13 12 11 10 10 10 9 9 9 9 9 8 8 8 8 7 7 7 6 6 6 5 5 5 5 4 4
18 19 19 19 20 20 20 20 20 20 21 21 21 20 19 16 15 13 12 11 11 10 9 9 8 8 8 8 8 7 7 7 7 6 6 5 5 5 5 4 4 4 4 3
18 18 18 19 19 19 19 19 19 19 19 19 19 18 17 15 13 12 11 11 10 9 9 8 8 8 8 7 7 7 6 6 6 5 5 5 4 4 4 4 3 3 3 3
17 17 18 19 18 17 17 18 18 18 17 17 16 15 14 11 9 9 10 10 9 9 8 8 8 7 7 7 6 6 6 5 5 5 4 4 4 4 3 3 3 2 2 2
16 17 17 18 18 18 17 16 16 17 16 15 14 13 11 10 10 8 8 8 8 8 8 7 7 7 6 6 6 5 5 5 4 4 4 4 3 3 3 3 2 2 2 1
17 17 17 17 16 16 15 16 15 16 15 14 14 13 12 12 13 9 7 7 7 7 7 6 6 6 5 5 5 5 4 4 4 4 4 3 3 3 3 2 2 2 1 1
16 16 16 16 15 15 14 15 16 15 13 13 13 13 12 11 10 7 6 6 6 6 6 5 5 5 5 5 4 4 4 4 4 4 3 3 3 3 2 2 2 1 1 1
15 15 15 15 15 13 13 15 14 12 12 12 12 11 9 7 6 6 6 6 5 5 5 5 5 4 4 4 4 4 4 4 4 4 3 3 3 3 2 2 1 1 1 1
15 14 15 14 14 13 12 12 11 11 11 11 11 10 8 7 6 6 5 5 5 5 4 4 4 4 4 4 4 4 4 4 4 3 3 3 3 2 2 2 2 2 1 1
15 14 14 14 14 13 12 11 11 11 11 11 10 9 8 7 6 5 5 5 4 4 4 4 5 4 4 4 4 4 4 4 4 3 3 3 3 2 2 2 2 2 2 1
14 14 14 14 14 13 12 11 10 10 10 10 9 9 8 6 5 5 5 5 4 4 5 5 5 5 5 4 4 4 4 4 4 3 3 3 3 3 2 2 2 2 1 1
14 14 14 14 12 12 11 10 9 9 9 9 8 8 7 6 5 5 5 5 5 5 5 5 5 5 5 5 4 4 4 4 4 4 3 4 4 3 3 3 2 2 1 1
Wind_Speed
13 13 14 15 17 10 6 10 12 9 4 8 11 11 9 6 6 6 6 6 8 11 12 12 15 17 16 16 16 16 16 16 14 11 11 9 7 5 5 6 7 5 4 4
12 17 15 11 13 14 11 11 10 8 5 7 10 12 11 9 6 3 4 5 6 8 8 8 11 14 17 17 17 16 16 16 15 11 9 6 7 6 5 5 6 6 4 5
18 8 12 12 13 16 16 15 13 9 7 9 10 14 14 11 6 2 2 5 7 8 9 7 8 11 14 15 16 14 15 14 14 12 10 10 7 5 4 5 4 5 5 5
16 8 10 14 15 15 15 14 12 10 11 11 9 14 14 11 9 4 1 5 8 9 8 7 5 5 9 11 12 12 12 12 12 13 13 13 9 7 5 5 6 7 8 8
12 13 13 14 14 16 11 10 11 11 11 12 11 11 13 11 12 4 3 8 10 11 10 8 7 4 3 4 6 9 11 11 12 13 13 12 9 8 7 7 9 9 8 10
11 9 12 13 12 14 9 7 8 9 11 14 15 13 11 7 4 1 6 9 10 10 10 10 10 10 9 9 8 9 12 12 12 12 12 11 12 12 11 11 10 9 8 8
12 12 10 9 11 13 13 11 9 10 11 12 9 11 5 8 6 5 6 8 10 11 11 12 12 12 12 12 11 12 13 12 11 11 10 11 12 12 12 11 11 11 9 8
13 13 14 13 14 12 15 16 11 8 10 10 10 9 6 9 8 8 8 9 10 11 12 13 13 13 13 13 13 13 14 13 12 12 11 11 11 10 10 12 12 11 9 8
8 8 9 13 15 15 15 15 14 11 9 8 8 6 7 8 9 8 9 10 10 11 11 12 13 13 13 14 13 13 14 14 13 13 13 13 12 13 14 14 13 11 9 9
5 6 6 7 11 14 15 14 10 12 12 13 12 13 10 14 10 9 9 9 10 10 11 12 12 13 13 13 13 14 14 14 14 13 13 12 14 14 14 13 13 12 10 9
5 7 6 7 10 13 13 13 12 13 13 13 12 7 5 11 12 11 10 9 10 10 10 11 11 12 13 13 14 14 14 15 14 14 15 15 15 15 14 13 12 11 10 9
2 5 7 5 3 4 10 12 14 13 13 12 13 2 7 9 12 13 12 11 10 11 10 11 11 12 13 14 14 14 14 15 15 15 15 15 15 14 14 13 12 11 10 8
4 3 6 7 7 6 6 6 8 10 10 12 14 4 8 11 13 13 13 12 11 11 11 11 11 12 12 13 13 14 14 14 14 15 16 15 15 15 14 13 11 10 9 8
4 3 5 5 1 4 5 4 6 9 11 11 9 5 10 12 13 13 13 12 11 10 10 11 11 11 12 12 13 13 13 13 13 14 15 15 14 14 13 12 10 9 8 6
5 2 2 3 3 3 2 0 2 4 5 7 2 5 10 11 13 13 13 13 12 11 11 11 11 11 11 12 12 12 12 12 13 14 14 14 13 12 11 10 9 7 6 5
5 2 2 3 1 1 0 2 2 2 3 3 1 3 7 9 11 12 12 13 12 11 11 11 11 11 10 10 11 11 11 11 12 13 13 12 11 10 9 8 7 6 4 3
3 3 5 6 4 6 6 3 4 2 3 4 3 3 7 8 9 8 8 10 11 11 11 11 10 10 10 10 10 11 11 11 12 12 11 10 9 9 7 6 5 4 3 3
4 4 4 6 5 9 3 5 4 3 4 5 5 7 9 12 12 11 8 9 10 10 11 10 10 10 10 10 10 11 11 11 11 11 9 8 7 7 6 5 5 4 3 3
4 4 4 5 7 4 5 5 6 5 3 7 7 9 11 13 12 11 11 10 10 11 11 10 10 11 11 10 10 11 10 10 10 9 8 7 6 6 5 5 4 3 3 3
1 3 5 5 6 3 5 8 7 5 2 6 6 8 8 5 4 5 7 10 11 11 11 11 11 12 11 10 10 10 10 10 9 8 7 7 6 5 5 5 4 3 3 3
3 3 4 5 4 2 8 9 7 3 3 5 6 7 7 7 9 10 10 10 11 11 11 11 11 11 10 9 9 10 10 9 8 8 7 7 6 5 5 4 3 3 2 3
4 4 3 3 3 3 11 7 6 5 5 7 9 11 13 14 14 12 12 11 12 12 12 11 11 10 9 8 8 9 8 8 7 7 7 6 5 4 4 3 3 2 3 2
2 4 4 4 3 5 6 7 6 5 6 7 8 10 13 14 13 12 12 11 12 12 11 10 11 10 8 7 7 8 7 6 6 6 6 5 4 4 3 1 1 1 2 4
1 1 4 2 3 4 5 6 6 6 5 5 6 9 12 13 13 13 12 12 12 12 11 10 10 10 8 7 6 6 5 5 5 5 4 4 3 3 2 1 2 4 5 5
3 3 4 4 1 0 4 5 6 4 4 4 6 8 11 14 14 14 13 13 12 11 9 9 9 9 9 7 6 5 4 3 3 4 3 2 2 1 0 1 2 4 5 5
2 4 5 3 4 4 4 5 5 3 2 4 7 9 12 14 15 15 13 12 11 10 9 9 9 8 8 7 7 6 4 3 2 2 2 1 0 1 2 3 0 4 2 4
Wind_Direction
186 203 208 206 215 238 221 218 210 206 189 234 231 237 239 246 258 252 250 251 248 249 248 234 222 217 210 204 201 200 199 191 188 186 183 178 164 118 87 72 68 76 97 120
190 220 220 217 215 222 221 222 220 215 213 249 246 248 247 244 245 264 288 288 286 285 276 256 235 219 213 208 204 200 198 191 187 180 169 153 126 104 98 95 86 89 108 126
208 216 207 203 203 212 220 227 229 231 219 231 250 247 234 225 210 210 319 328 325 320 308 291 255 229 217 210 205 202 195 186 181 160 135 122 113 111 114 106 105 102 106 114
220 198 184 200 205 207 215 218 232 238 245 236 221 248 213 204 199 184 4 1 354 351 341 331 302 236 217 210 198 192 182 174 163 148 146 149 149 145 152 149 140 130 122 110
211 206 201 207 208 208 219 208 222 235 244 255 229 245 233 190 204 181 41 21 12 7 11 21 27 44 101 145 158 158 149 142 139 140 144 145 143 138 135 135 132 120 106 98
214 204 215 218 212 209 213 202 216 235 240 238 232 232 230 187 186 107 45 30 24 25 36 47 55 64 75 88 105 117 120 118 121 127 132 136 137 136 140 137 130 117 106 100
207 205 209 215 202 198 209 214 215 214 217 232 203 220 206 97 80 62 54 48 43 42 49 55 60 66 73 81 89 98 103 102 105 110 114 122 129 135 137 132 126 119 113 110
203 208 204 210 216 199 205 218 229 230 221 210 180 219 133 106 101 92 82 73 63 57 56 58 60 65 70 75 80 88 93 93 95 97 99 104 112 115 117 119 120 116 115 113
207 212 196 211 219 224 213 222 238 257 263 251 200 154 133 135 121 105 94 84 73 65 60 60 59 61 65 70 74 83 90 91 92 96 98 99 102 107 112 114 112 110 111 114
261 236 209 202 211 221 233 226 222 232 239 237 227 211 198 171 151 129 110 95 82 71 64 60 60 62 65 70 75 80 84 89 92 95 97 100 103 107 110 109 106 107 108 109
257 248 216 197 211 204 206 217 226 234 244 248 244 219 109 154 150 137 116 99 90 80 72 67 66 67 71 75 78 82 85 89 91 94 98 101 104 105 105 104 105 106 106 109
314 258 239 217 212 256 217 221 220 233 235 244 261 196 101 131 136 130 118 105 94 88 82 78 77 79 79 80 82 85 89 92 96 99 100 102 104 104 104 104 105 107 106 107
332 257 224 196 190 191 201 216 227 235 252 248 250 193 120 127 125 124 120 112 103 96 91 87 84 82 83 85 87 90 91 95 101 104 104 104 105 104 104 104 104 102 101 100
303 300 289 275 183 172 186 195 212 230 241 242 248 157 147 146 138 131 124 117 111 104 101 97 92 89 89 90 91 93 95 98 102 103 103 102 102 102 102 101 99 97 96 95
341 307 25 51 71 109 126 153 242 247 274 268 226 157 156 156 149 139 132 127 121 116 109 104 102 99 98 96 95 95 97 98 102 103 102 101 101 100 98 95 91 88 88 91
2 303 261 215 191 188 167 4 345 345 347 325 194 113 118 130 130 134 137 134 126 119 115 113 111 107 104 102 102 101 100 100 102 102 102 102 101 98 96 96 96 95 92 81
338 305 265 246 246 254 237 4 351 340 2 340 314 81 126 122 109 108 119 125 123 122 122 120 116 112 110 108 108 108 108 108 106 106 107 108 108 108 110 113 109 101 88 74
322 302 267 261 249 247 80 50 11 1 44 34 64 83 98 98 83 62 64 99 107 112 114 116 116 112 110 110 110 111 112 112 112 113 112 113 118 120 120 113 100 90 71 50
348 304 278 267 253 239 112 32 357 337 43 54 90 101 108 114 97 60 47 74 92 102 107 112 115 116 114 114 117 118 118 117 116 116 118 125 127 120 115 102 88 67 48 34
355 301 278 274 272 266 42 7 338 296 97 62 106 123 135 156 126 86 70 82 89 97 104 111 114 115 114 117 123 122 121 121 121 124 127 126 114 104 95 84 68 60 42 25
319 305 295 290 272 68 17 341 313 304 38 51 92 95 84 69 87 111 103 96 98 102 107 111 112 110 113 121 124 122 124 123 127 128 122 114 106 98 89 82 68 48 28 27
330 323 329 318 294 43 11 11 29 31 44 78 83 88 94 101 107 111 110 110 111 110 109 109 107 107 113 121 124 122 122 128 130 127 119 112 104 94 97 95 77 42 1 356
330 352 342 358 27 61 46 55 50 43 65 73 85 105 118 121 121 118 115 113 112 111 111 113 113 113 117 123 124 121 125 131 132 128 118 113 109 104 99 82 53 13 353 352
191 317 297 311 80 74 76 72 57 48 57 75 107 128 131 129 128 125 121 119 117 116 118 119 117 113 111 110 107 108 118 130 135 132 126 131 135 142 133 338 358 360 2 358
301 285 281 280 312 96 105 51 30 34 61 94 114 126 132 132 131 127 123 122 121 120 120 117 113 110 108 105 97 94 100 119 130 132 139 161 156 106 271 334 12 358 26 25
259 276 282 328 25 334 353 11 2 4 55 110 121 121 125 129 129 126 123 123 124 124 123 117 110 105 103 99 90 81 79 87 113 137 161 207 280 320 312 329 188 137 41 122
Height
1496 1496 1493 1491 1491 1486 1486 1487 1487 1485 1485 1487 1484 1482 1479 1481 1482 1481 1482 1484 1486 1488 1490 1493 1495 1498 1502 1504 1507 1510 1514 1517 1521 1524 1528 1532 1535 1537 1540 1543 1546 1548 1550 1551
1494 1491 1486 1487 1489 1491 1492 1493 1489 1487 1487 1488 1484 1482 1478 1479 1481 1483 1483 1484 1485 1486 1487 1489 1491 1494 1496 1499 1502 1505 1509 1512 1516 1520 1524 1527 1529 1532 1536 1539 1542 1544 1546 1547
1485 1480 1482 1488 1491 1493 1492 1492 1488 1487 1484 1486 1487 1484 1477 1476 1480 1483 1484 1485 1485 1485 1485 1485 1487 1489 1492 1495 1498 1501 1505 1508 1512 1516 1518 1521 1525 1528 1531 1534 1538 1540 1541 1542
1480 1480 1484 1487 1487 1488 1490 1485 1486 1487 1489 1481 1483 1483 1469 1471 1476 1481 1483 1484 1485 1485 1484 1483 1483 1485 1487 1491 1494 1498 1502 1505 1509 1511 1514 1517 1520 1524 1528 1529 1530 1533 1535 1538
1478 1477 1481 1483 1481 1482 1480 1479 1483 1485 1486 1485 1481 1486 1468 1470 1474 1478 1484 1487 1487 1486 1484 1483 1482 1483 1484 1488 1491 1495 1498 1502 1505 1508 1511 1514 1518 1521 1524 1526 1527 1529 1532 1534
1472 1475 1475 1475 1475 1478 1478 1481 1483 1483 1482 1491 1479 1481 1473 1467 1475 1480 1486 1489 1489 1488 1486 1484 1483 1483 1484 1486 1490 1493 1496 1500 1503 1507 1509 1512 1516 1519 1521 1523 1525 1527 1529 1532
1475 1473 1472 1472 1474 1477 1478 1484 1489 1488 1487 1481 1468 1476 1469 1476 1483 1487 1490 1492 1492 1490 1488 1487 1486 1486 1486 1488 1491 1493 1496 1500 1503 1506 1509 1511 1515 1518 1520 1522 1523 1526 1529 1532
1476 1474 1468 1468 1469 1471 1475 1476 1482 1484 1478 1469 1472 1471 1470 1479 1487 1491 1493 1494 1494 1493 1492 1490 1490 1490 1490 1491 1493 1495 1498 1501 1504 1507 1509 1512 1515 1517 1520 1522 1524 1526 1529 1532
1467 1468 1460 1462 1464 1465 1469 1470 1464 1471 1470 1471 1462 1467 1476 1481 1487 1491 1494 1496 1496 1496 1495 1494 1494 1493 1494 1495 1497 1499 1501 1503 1506 1509 1511 1513 1516 1518 1520 1523 1525 1528 1530 1533
1464 1468 1460 1459 1461 1462 1461 1461 1467 1474 1481 1481 1468 1467 1465 1477 1484 1491 1495 1497 1499 1499 1498 1498 1497 1497 1498 1499 1500 1502 1504 1506 1508 1511 1513 1515 1517 1520 1522 1525 1527 1530 1533 1536
1468 1470 1463 1461 1462 1460 1464 1465 1465 1464 1463 1471 1473 1465 1461 1470 1481 1489 1495 1499 1500 1501 1501 1501 1501 1501 1502 1503 1504 1506 1507 1509 1511 1513 1516 1518 1520 1522 1525 1527 1530 1533 1535 1537
1470 1467 1464 1461 1457 1456 1457 1458 1462 1469 1468 1464 1466 1471 1472 1476 1483 1490 1496 1500 1502 1503 1503 1504 1505 1505 1506 1507 1509 1510 1512 1514 1515 1517 1519 1521 1523 1525 1528 1530 1533 1535 1537 1539
1474 1471 1471 1468 1466 1461 1460 1460 1459 1461 1462 1462 1465 1472 1476 1482 1488 1493 1497 1501 1503 1505 1506 1507 1508 1509 1510 1512 1513 1515 1516 1518 1520 1521 1522 1524 1526 1528 1530 1533 1535 1537 1538 1540
1477 1471 1470 1469 1462 1459 1462 1462 1460 1461 1460 1460 1460 1468 1478 1483 1489 1495 1499 1502 1505 1507 1508 1510 1511 1513 1514 1516 1517 1519 1520 1522 1524 1525 1526 1527 1529 1531 1533 1535 1537 1538 1539 1540
1477 1472 1470 1467 1465 1464 1466 1466 1464 1463 1461 1460 1460 1465 1473 1482 1488 1494 1499 1503 1506 1509 1510 1512 1514 1515 1517 1519 1520 1522 1523 1525 1527 1528 1528 1530 1531 1533 1535 1536 1537 1538 1539 1540
1480 1477 1474 1473 1470 1469 1471 1471 1469 1469 1468 1466 1466 1473 1477 1484 1490 1495 1500 1503 1506 1510 1512 1514 1515 1517 1519 1521 1523 1524 1525 1527 1529 1529 1530 1532 1533 1535 1536 1537 1538 1538 1539 1539
1480 1481 1479 1474 1472 1472 1475 1476 1476 1475 1474 1475 1474 1479 1484 1489 1494 1498 1501 1504 1507 1510 1513 1515 1517 1518 1521 1522 1524 1526 1527 1529 1530 1531 1532 1534 1535 1536 1537 1538 1538 1538 1538 1538
1486 1482 1479 1475 1478 1486 1483 1482 1482 1480 1482 1482 1484 1487 1490 1495 1500 1503 1505 1506 1509 1511 1513 1515 1518 1519 1522 1524 1525 1527 1529 1530 1531 1532 1534 1535 1536 1537 1538 1539 1539 1538 1538 1537
1489 1485 1480 1479 1478 1478 1483 1485 1486 1484 1485 1489 1490 1494 1497 1499 1501 1507 1509 1509 1511 1512 1514 1516 1519 1521 1523 1525 1527 1528 1530 1532 1533 1534 1535 1537 1538 1539 1539 1539 1539 1538 1538 1537
1488 1486 1483 1482 1486 1488 1492 1490 1489 1488 1490 1495 1494 1496 1499 1499 1501 1512 1513 1512 1513 1514 1516 1518 1520 1522 1524 1526 1528 1530 1532 1533 1535 1536 1537 1538 1539 1540 1540 1539 1539 1538 1537 1536
1488 1486 1486 1486 1488 1488 1495 1492 1489 1493 1500 1499 1498 1500 1501 1503 1507 1513 1514 1515 1516 1517 1519 1521 1524 1525 1527 1529 1531 1532 1533 1535 1537 1538 1539 1540 1540 1540 1540 1539 1539 1538 1537 1536
1494 1492 1490 1490 1491 1500 1500 1494 1497 1503 1502 1501 1502 1504 1505 1508 1511 1514 1516 1518 1520 1521 1523 1525 1527 1528 1530 1531 1533 1534 1536 1537 1538 1539 1540 1541 1541 1541 1540 1540 1539 1538 1537 1536
1497 1498 1495 1497 1501 1503 1503 1503 1505 1504 1504 1505 1506 1507 1508 1511 1514 1516 1519 1521 1522 1524 1526 1528 1530 1531 1533 1534 1536 1537 1538 1539 1540 1540 1541 1541 1541 1541 1541 1540 1539 1538 1537 1535
1499 1502 1499 1498 1499 1503 1505 1505 1506 1506 1506 1507 1508 1509 1510 1512 1515 1518 1520 1523 1525 1527 1529 1532 1533 1534 1536 1537 1538 1539 1540 1540 1540 1541 1541 1541 1541 1541 1541 1540 1539 1538 1536 1534
1501 1501 1499 1499 1500 1503 1505 1507 1507 1507 1507 1508 1508 1510 1512 1513 1516 1519 1522 1525 1528 1530 1533 1535 1536 1537 1539 1540 1541 1541 1541 1541 1541 1541 1542 1542 1542 1541 1540 1539 1538 1537 1535 1533
1501 1502 1501 1499 1504 1505 1506 1508 1508 1508 1508 1508 1509 1511 1513 1515 1518 1521 1525 1528 1531 1533 1535 1537 1539 1540 1541 1542 1542 1542 1542 1542 1542 1542 1542 1542 1541 1540 1539 1538 1536 1534 1533 1531